Weather History for Camdenton, MO

Change the Weather History Date:

Tuesday, January 7, 2014

  Actual Average (KAIZ) Record (KAIZ)
Temperature  
Mean Temperature 16 °F -  
Max Temperature 35 °F 39 °F 71 °F (2008)
Min Temperature -2 °F 23 °F -13 °F (2014)
Degree Days  
Heating Degree Days 48    
Moisture  
Dew Point 6 °F    
Average Humidity 56    
Maximum Humidity 72    
Minimum Humidity 41    
Precipitation  
Precipitation 0.00 in - - ()
Sea Level Pressure  
Sea Level Pressure 30.26 in    
Wind  
Wind Speed 8 mph (South)    
Max Wind Speed 17 mph    
Max Gust Speed 25 mph    
Visibility 10 miles    
Events      
Averages and records for this station are not official NWS values.
T = Trace of Precipitation, MM = Missing Value Source: NWS Daily Summary

Daily Weather History Graph

Daily Weather History Graph

Search for Another Location

Airport:

Trip Planner

Search our weather history database for the weather conditions in past years. The results will help you decide how hot, cold, wet, or windy it might be!

Date:

Astronomy

Jan. 07, 2014 Rise Set
Actual Time 7:27 AM CST 5:07 PM CST
Civil Twilight 6:57 AM CST 5:36 PM CST
Nautical Twilight 6:25 AM CST 6:09 PM CST
Astronomical Twilight 5:53 AM CST 6:41 PM CST
Moon 11:23 AM CST (1/7) No Moon Set
Length of Visible Light 10h 38m
Length of Day
9h 40m
Waxing Crescent, 46% of the Moon is Illuminated
Jan 7
Waxing Crescent
Jan 7
First Quarter
Jan 15
Full
Jan 23
Last Quarter
Jan 30
New

Hourly Weather History & Observations

Time (CST) Temp. Windchill Dew Point Humidity Pressure Visibility Wind Dir Wind Speed Gust Speed Precip Events Conditions
12:15 AM -2.2 °F -15.6 °F -9.4 °F 71% 30.44 in 10.0 mi SSW 6.9 mph - N/A   Clear
12:35 AM -0.4 °F -13.4 °F -7.6 °F 72% 30.43 in 10.0 mi SSW 6.9 mph - N/A   Clear
12:55 AM -0.4 °F -13.4 °F -9.4 °F 66% 30.42 in 10.0 mi SSW 6.9 mph - N/A   Clear
1:15 AM -0.4 °F -13.4 °F -9.4 °F 66% 30.43 in 10.0 mi SSW 6.9 mph - N/A   Clear
1:35 AM -0.4 °F -12.0 °F -9.4 °F 66% 30.42 in 10.0 mi SSW 5.8 mph - N/A   Clear
1:55 AM -0.4 °F -13.4 °F -7.6 °F 72% 30.42 in 10.0 mi SSW 6.9 mph - N/A   Clear
2:15 AM -0.4 °F -13.4 °F -7.6 °F 72% 30.43 in 10.0 mi SSW 6.9 mph - N/A   Clear
2:35 AM 1.4 °F -12.5 °F -7.6 °F 66% 30.42 in 10.0 mi SSW 8.1 mph - N/A   Clear
2:55 AM 1.4 °F -9.9 °F -7.6 °F 66% 30.41 in 10.0 mi South 5.8 mph - N/A   Clear
3:15 AM 1.4 °F -9.9 °F -7.6 °F 66% 30.41 in 10.0 mi SSW 5.8 mph - N/A   Clear
3:35 AM -0.4 °F -8.3 °F -7.6 °F 72% 30.40 in 10.0 mi South 3.5 mph - N/A   Clear
3:55 AM 1.4 °F -8.3 °F -7.6 °F 66% 30.39 in 10.0 mi South 4.6 mph - N/A   Clear
4:15 AM 1.4 °F -12.5 °F -7.6 °F 66% 30.38 in 10.0 mi South 8.1 mph - N/A   Clear
4:35 AM 1.4 °F -12.5 °F -7.6 °F 66% 30.38 in 10.0 mi South 8.1 mph - N/A   Clear
4:55 AM 3.2 °F -9.1 °F -7.6 °F 61% 30.38 in 10.0 mi South 6.9 mph - N/A   Clear
5:15 AM 3.2 °F -9.1 °F -7.6 °F 61% 30.38 in 10.0 mi South 6.9 mph - N/A   Clear
5:35 AM 3.2 °F -7.8 °F -7.6 °F 61% 30.37 in 10.0 mi South 5.8 mph - N/A   Clear
5:55 AM 3.2 °F -9.1 °F -7.6 °F 61% 30.35 in 10.0 mi SSE 6.9 mph - N/A   Clear
6:15 AM 3.2 °F -11.3 °F -5.8 °F 66% 30.35 in 10.0 mi South 9.2 mph - N/A   Clear
6:35 AM 3.2 °F -7.8 °F -5.8 °F 66% 30.34 in 10.0 mi South 5.8 mph - N/A   Clear
6:55 AM 3.2 °F -9.1 °F -5.8 °F 66% 30.34 in 10.0 mi South 6.9 mph - N/A   Clear
7:15 AM 1.4 °F -9.9 °F -7.6 °F 66% 30.33 in 10.0 mi SE 5.8 mph - N/A   Clear
7:35 AM 1.4 °F -11.3 °F -7.6 °F 66% 30.33 in 10.0 mi SE 6.9 mph - N/A   Clear
7:55 AM 1.4 °F -11.3 °F -7.6 °F 66% 30.33 in 10.0 mi SE 6.9 mph - N/A   Clear
8:15 AM 5.0 °F -10.8 °F -4.0 °F 66% 30.32 in 10.0 mi SSE 11.5 mph - N/A   Clear
8:35 AM 6.8 °F -6.9 °F -4.0 °F 61% 30.31 in 10.0 mi SE 9.2 mph - N/A   Clear
8:55 AM 8.6 °F -4.7 °F -0.4 °F 67% 30.31 in 10.0 mi SSE 9.2 mph - N/A   Clear
9:15 AM 12.2 °F -2.5 °F -0.4 °F 57% 30.30 in 10.0 mi SSE 12.7 mph - N/A   Clear
9:35 AM 14.0 °F 1.2 °F 1.4 °F 57% 30.31 in 10.0 mi SSE 10.4 mph - N/A   Clear
9:55 AM 17.6 °F 6.4 °F 3.2 °F 53% 30.29 in 10.0 mi SSE 9.2 mph - N/A   Clear
10:15 AM 21.2 °F 10.9 °F 5.0 °F 50% 30.29 in 10.0 mi South 9.2 mph - N/A   Clear
10:35 AM 23.0 °F 10.6 °F 8.6 °F 54% 30.27 in 10.0 mi South 13.8 mph 18.4 mph N/A   Clear
10:55 AM 24.8 °F 13.4 °F 8.6 °F 50% 30.26 in 10.0 mi South 12.7 mph 17.3 mph N/A   Clear
11:15 AM 26.6 °F 16.2 °F 8.6 °F 47% 30.24 in 10.0 mi South 11.5 mph 18.4 mph N/A   Clear
11:35 AM 28.4 °F 19.1 °F 10.4 °F 47% 30.22 in 10.0 mi South 10.4 mph 16.1 mph N/A   Clear
11:55 AM 30.2 °F 19.8 °F 10.4 °F 44% 30.20 in 10.0 mi South 13.8 mph 19.6 mph N/A   Clear
12:15 PM 32.0 °F 22.1 °F 10.4 °F 41% 30.19 in 10.0 mi SSW 13.8 mph 18.4 mph N/A   Clear
12:35 PM 32.0 °F 20.8 °F 10.4 °F 41% 30.17 in 10.0 mi SSW 17.3 mph 24.2 mph N/A   Clear
12:55 PM 32.0 °F 22.5 °F 12.2 °F 44% 30.16 in 10.0 mi SSW 12.7 mph 21.9 mph N/A   Clear
1:15 PM 33.8 °F 23.9 °F 12.2 °F 41% 30.15 in 10.0 mi SSW 15.0 mph 21.9 mph N/A   Clear
1:35 PM 33.8 °F 24.3 °F 14.0 °F 44% 30.13 in 10.0 mi SSW 13.8 mph 25.3 mph N/A   Clear
1:55 PM 33.8 °F 23.9 °F 14.0 °F 44% 30.12 in 10.0 mi SSW 15.0 mph 25.3 mph N/A   Clear
2:15 PM 35.6 °F 27.1 °F 14.0 °F 41% 30.12 in 10.0 mi SSW 12.7 mph 18.4 mph N/A   Clear
2:35 PM 35.6 °F 26.2 °F 14.0 °F 41% 30.11 in 10.0 mi South 15.0 mph 24.2 mph N/A   Clear
2:55 PM 35.6 °F 26.6 °F 14.0 °F 41% 30.11 in 10.0 mi SSW 13.8 mph - N/A   Clear
3:15 PM 35.6 °F 26.6 °F 14.0 °F 41% 30.12 in 10.0 mi SSW 13.8 mph 21.9 mph N/A   Clear
3:35 PM 35.6 °F 26.6 °F 15.8 °F 44% 30.12 in 10.0 mi SSW 13.8 mph 19.6 mph N/A   Clear
3:55 PM 35.6 °F 27.5 °F 15.8 °F 44% 30.12 in 10.0 mi South 11.5 mph 17.3 mph N/A   Clear
4:15 PM 35.6 °F 29.9 °F 15.8 °F 44% 30.13 in 10.0 mi SSW 6.9 mph - N/A   Clear
4:35 PM 35.6 °F 29.2 °F 15.8 °F 44% 30.14 in 10.0 mi SSW 8.1 mph - N/A   Clear
4:55 PM 35.6 °F 30.7 °F 15.8 °F 44% 30.15 in 10.0 mi South 5.8 mph - N/A   Clear
5:15 PM 33.8 °F 30.8 °F 15.8 °F 48% 30.16 in 10.0 mi SSW 3.5 mph - N/A   Clear
5:35 PM 33.8 °F 30.8 °F 15.8 °F 48% 30.16 in 10.0 mi SSW 3.5 mph - N/A   Clear
5:55 PM 33.8 °F 29.6 °F 15.8 °F 48% 30.17 in 10.0 mi SSW 4.6 mph - N/A   Clear
6:15 PM 33.8 °F 28.6 °F 15.8 °F 48% 30.18 in 10.0 mi SW 5.8 mph - N/A   Clear
6:35 PM 33.8 °F 27.0 °F 17.6 °F 52% 30.19 in 10.0 mi SW 8.1 mph - N/A   Clear
6:55 PM 32.0 °F 24.8 °F 17.6 °F 55% 30.19 in 10.0 mi SW 8.1 mph - N/A   Clear
7:15 PM 32.0 °F 26.4 °F 17.6 °F 55% 30.19 in 10.0 mi SSW 5.8 mph - N/A   Clear
7:35 PM 32.0 °F 25.6 °F 17.6 °F 55% 30.19 in 10.0 mi SSW 6.9 mph - N/A   Clear
7:55 PM 32.0 °F 26.4 °F 17.6 °F 55% 30.20 in 10.0 mi SSW 5.8 mph - N/A   Clear
8:15 PM 32.0 °F 24.8 °F 17.6 °F 55% 30.20 in 10.0 mi SSW 8.1 mph - N/A   Clear
8:35 PM 32.0 °F 25.6 °F 17.6 °F 55% 30.20 in 10.0 mi SSW 6.9 mph - N/A   Clear
8:55 PM 32.0 °F 26.4 °F 17.6 °F 55% 30.20 in 10.0 mi SSW 5.8 mph - N/A   Clear
9:15 PM 32.0 °F 25.6 °F 17.6 °F 55% 30.20 in 10.0 mi SSW 6.9 mph - N/A   Clear
9:35 PM 32.0 °F 26.4 °F 17.6 °F 55% 30.21 in 10.0 mi SSW 5.8 mph - N/A   Clear
9:55 PM 32.0 °F 25.6 °F 19.4 °F 60% 30.22 in 10.0 mi SSW 6.9 mph - N/A   Clear
10:15 PM 32.0 °F 25.6 °F 19.4 °F 60% 30.22 in 10.0 mi SSW 6.9 mph - N/A   Clear
10:35 PM 32.0 °F 26.4 °F 19.4 °F 60% 30.22 in 10.0 mi SSW 5.8 mph - N/A   Clear
10:55 PM 32.0 °F 25.6 °F 19.4 °F 60% 30.22 in 10.0 mi SSW 6.9 mph - N/A   Clear
11:15 PM 32.0 °F 25.6 °F 19.4 °F 60% 30.22 in 10.0 mi SSW 6.9 mph - N/A   Clear
11:35 PM 32.0 °F 26.4 °F 19.4 °F 60% 30.22 in 10.0 mi South 5.8 mph - N/A   Clear
11:55 PM 32.0 °F 26.4 °F 19.4 °F 60% 30.22 in 10.0 mi SSW 5.8 mph - N/A   Clear